AO-07 1 07530U 74089B 14237.88535572 -.00000039 00000-0 25716-4 0 475 2 07530 101.4796 217.4395 0012081 156.8947 268.3787 12.53606608820253 FO-29 1 24278U 96046B 14238.09992733 -.00000005 00000-0 27744-4 0 4492 2 24278 098.5142 242.3111 0351564 116.2187 288.9718 13.53027812890123 SO-33 1 25509U 98061B 14238.11496791 .00000451 00000-0 78002-4 0 8227 2 25509 031.4313 124.1557 0349080 007.0259 111.5795 14.29577990827166 RS-22 1 27939U 03042A 14238.36551470 .00000608 00000-0 12101-3 0 7954 2 27939 097.8155 049.0467 0012026 243.8620 116.1332 14.65288064583000 HO-68 1 36122U 09072B 14238.18795362 -.00000043 00000-0 00000 0 0 8852 2 36122 100.2418 287.9118 0007636 079.1569 281.0414 13.16317548225645 AO-73 1 39444U 13066AE 14238.07106011 .00001147 00000-0 15909-3 0 2302 2 39444 097.7665 306.3315 0062383 017.1705 343.1613 14.78510582 39790 EO-79 1 40025U 14033R 14239.56128118 .00001364 00000-0 15840-3 0 1923 2 40025 097.9756 134.3288 0014825 067.1780 293.1514 14.85355070 10187 UO-11 1 14781U 84021B 14237.25369615 .00000545 00000-0 75770-4 0 5822 2 14781 097.8455 296.0140 0007433 321.6506 038.4178 14.81692773638199 AO-16 1 20439U 90005D 14237.81443972 .00000101 00000-0 53290-4 0 982 2 20439 098.5095 173.8495 0009871 317.7716 095.7084 14.32378061284451 LO-19 1 20442U 90005G 14236.87225418 .00000077 00000-0 44074-4 0 368 2 20442 098.4804 173.3724 0010689 308.2504 051.7717 14.32578675284516 AO-27 1 22825U 93061C 14237.12584674 .00000050 00000-0 36599-4 0 7452 2 22825 098.6671 182.8553 0009628 096.8356 330.9526 14.29737627 90636 IO-26 1 22826U 93061D 14237.09352689 .00000071 00000-0 44505-4 0 5028 2 22826 098.6612 183.0316 0010149 090.1753 270.0592 14.30039906 90768 GO-32 1 25397U 98043D 14237.81928282 .00000032 00000-0 32412-4 0 4252 2 25397 098.4758 193.2333 0002479 105.1151 310.5430 14.23456104837777 NO-44 1 26931U 01043C 14237.28018356 .00000035 00000-0 45428-4 0 6801 2 26931 067.0509 220.2832 0007245 279.3731 080.6551 14.30139659673483 SO-50 1 27607U 02058C 14237.77102131 .00000451 00000-0 88058-4 0 4826 2 27607 064.5582 020.2101 0056190 351.4687 008.5454 14.73868440627731 CO-55 1 27844U 03031E 14238.02500590 .00000174 00000-0 99192-4 0 00 2 27844 098.6994 245.7933 0010809 077.3804 340.4383 14.21543073578502 CO-57 1 27848U 03031J 14237.28345355 .00000112 00000-0 71266-4 0 9415 2 27848 098.7088 244.8110 0010806 085.2134 036.7572 14.21225139578313 AO-51 1 28375U 04025K 14237.27657306 .00000096 00000-0 41346-4 0 9165 2 28375 098.2553 181.8519 0084086 143.0004 217.7025 14.41413526533860 CP3 1 31129U 07012N 14236.94522395 .00000448 00000-0 10796-3 0 8284 2 31129 097.9410 211.4716 0099212 156.0617 269.4714 14.54791171390037 CO-65 1 32785U 08021C 14238.15613134 .00000839 00000-0 10318-3 0 377 2 32785 097.6927 287.1363 0012437 322.5952 103.3461 14.85467929342419 PRISM 1 33493U 09002B 14238.34092947 .00002845 00000-0 30213-3 0 2331 2 33493 098.2526 057.0071 0016772 211.5965 148.4260 14.89795700302626 SOHLA-1 1 33496U 09002E 14238.05234213 .00000273 00000-0 52908-4 0 4371 2 33496 098.1782 359.1863 0006564 032.8583 021.9716 14.70864988299783 TISAT-1 1 36799U 10035E 14238.25711133 .00001847 00000-0 21779-3 0 4954 2 36799 098.0166 330.7898 0015001 091.3592 268.9350 14.85925856223126 STUDSAT 1 36801U 10035G 14240.89922940 .00049565 00000-0 42115-2 0 8769 2 36801 098.0384 342.9802 0009784 064.3614 295.9119 14.97873250224013 ALMASAT-1 1 38078U 12006B 14237.48121304 .00026493 33031-5 54091-3 0 1224 2 38078 069.4660 251.7051 0584745 299.6141 174.2581 14.53081573131690 XATCOBEO 1 38082U 12006F 14241.00273453 .02271527 00000-0 15234-2 0 5478 2 38082 069.4177 104.4271 0056002 219.4305 140.3067 16.12835112135856 CUBEBUG-1 1 39153U 13018D 14238.23390097 .00000932 00000-0 13665-3 0 4190 2 39153 098.0384 318.3865 0018615 123.3801 236.9185 14.77856656 71904 ESTCUBE-1 1 39161U 13021C 14238.32989950 .00000683 00000-0 12178-3 0 4163 2 39161 098.0942 318.7051 0010289 164.0444 196.1103 14.70109745 69905 DUCHIFAT-1 1 40021U 14033M 14239.55564429 .00002410 00000-0 27873-3 0 1974 2 40021 097.9742 134.3485 0015915 069.3886 290.9549 14.85509549 10241 NANOSATCBR1 1 40024U 14033Q 14239.42543940 .00001590 00000-0 18445-3 0 1904 2 40024 097.9756 134.1911 0014787 066.3746 293.9535 14.85395221 10225 DTUSAT-2 1 40030U 14033W 14239.64564162 .00001308 00000-0 15326-3 0 1872 2 40030 097.9719 134.3600 0014013 060.5416 299.7708 14.84986645 10221 ANTELSAT 1 40034U 14033AA 14238.24390377 .00001084 00000-0 17864-3 0 1900 2 40034 097.9732 131.5135 0061829 344.9208 015.0175 14.71309660 9909 MET-2/21 1 22782U 93055A 14238.14546510 -.00000012 00000-0 -24275-4 0 1459 2 22782 082.5481 117.8074 0023309 070.7845 039.0280 13.83743036 59797 OKEAN-4 1 23317U 94066A 14250.44418236 .00000930 00000-0 10697-3 0 6259 2 23317 082.5393 350.8015 0020253 185.2050 174.9536 14.85667507 75324 NOAA-14 1 23455U 94089A 14239.11525068 -.00000056 00000-0 -67052-5 0 8735 2 23455 098.7752 321.2844 0009572 191.8672 217.2046 14.13984034 13979 NOAA-15 1 25338U 98030A 14250.43940252 .00000149 00000-0 62894-4 0 3117 2 25338 098.7603 244.1589 0010181 271.5081 088.5495 14.25461185848561 RESURS 1 25394U 98043A 14237.49479830 -.00000037 00000-0 19185-5 0 7345 2 25394 098.4206 198.9725 0002437 078.8202 028.9489 14.24396322838182 FENGYUN1 1 25730U 99025A 14237.43563086 .00000598 00000-0 35008-3 0 2246 2 25730 098.9167 198.1188 0021529 279.5218 191.9260 14.12007975787295 OKEAN-0 1 25860U 99039A 14237.01055319 .00000352 00000-0 59486-4 0 3374 2 25860 098.0504 200.4966 0001533 126.4141 275.9683 14.75351438812302 NOAA-16 1 26536U 00055A 14250.43234705 .00000124 00000-0 66475-4 0 8068 2 26536 098.9829 311.1173 0010337 314.2055 045.8905 14.13035517719727 NOAA-17 1 27453U 02032A 14250.49968061 .00000140 00000-0 59873-4 0 7026 2 27453 098.3212 245.8952 0011412 295.3858 064.6709 14.24769794634404 NOAA-18 1 28654U 05018A 14250.49763554 .00000253 00000-0 13797-3 0 2144 2 28654 099.1572 231.6795 0014800 033.9711 326.2923 14.12058771479182 NOAA-19 1 33591U 09005A 14240.83498933 .00000107 00000-0 58581-4 0 3569 2 33591 098.9480 185.6691 0013134 277.7250 082.2911 14.11751722286223 HUBBLE 1 20580U 90037B 14240.69800633 .00005196 00000-0 35029-3 0 961 2 20580 028.4707 280.3991 0002982 349.8293 010.2721 15.05657398135658 ISS 1 25544U 98067A 14240.92597390 .00000009 00000-0 15119-6 0 9830 2 25544 051.6444 099.0571 0003252 058.2625 301.9208 15.50076760902615 CO-58 1 28895U 05043F 14237.47495721 .00000549 00000-0 11802-3 0 8521 2 28895 097.8310 075.7361 0018349 148.6608 211.5691 14.61979202470376 FALCON 1 30776U 07006E 14237.76421384 .00006661 00000-0 33151-3 0 9409 2 30776 035.4295 042.7387 0001764 215.6812 266.0135 15.17013281411308 MAST 1 31126U 07012K 14237.91890208 .00000499 00000-0 11838-3 0 1276 2 31126 097.9216 215.2041 0093269 136.3600 277.5899 14.55348910390539 CAPE1 1 31130U 07012P 14237.21074764 .00000406 00000-0 99167-4 0 1332 2 31130 097.9425 211.2728 0099678 156.7072 203.8690 14.54536059389848 COMPASS 1 32787U 08021E 14237.22505694 .00001388 00000-0 15622-3 0 202 2 32787 097.6950 288.7699 0012280 316.1637 043.8604 14.88191646342455 AAUSAT2 1 32788U 08021F 14238.13655402 .00003250 00000-0 35150-3 0 69 2 32788 097.6959 290.7284 0011756 311.2451 048.7752 14.88924075342655 DO-64 1 32789U 08021G 14241.02139193 .00018605 00000-0 17449-2 0 493 2 32789 097.7151 300.7513 0010471 282.9575 077.0982 14.94007486343377 CO-66 1 32791U 08021J 14238.05257688 .00001664 00000-0 19247-3 0 20 2 32791 097.6944 288.1905 0013038 317.2761 042.7441 14.86795701342434 RS-30 1 32953U 08025A 14238.25397793 .00000010 00000-0 00000 0 0 2342 2 32953 082.5110 157.6552 0020207 008.3858 351.7554 12.43050117283967 METEOR-M 1 35865U 09049A 14250.48450817 .00000012 00000-0 53323-5 0 8395 2 35865 098.5449 295.3728 0002030 210.3880 149.7840 14.21927728258035 RS-38 1 35869U 09049E 14238.13290956 .00000002 00000-0 20229-4 0 7513 2 35869 098.5364 283.1732 0003773 242.0396 176.8675 14.22222680256316 JUGNU 1 37839U 11058B 14238.11969064 .00000388 00000-0 65341-4 0 6808 2 37839 019.9610 191.0904 0019170 035.1242 034.3018 14.12328473148453 SRMSAT 1 37841U 11058D 14235.39395903 .00000347 00000-0 45742-4 0 6812 2 37841 019.9713 228.2837 0011792 303.1493 179.1585 14.10366060147858 RAX-2 1 37853U 11061D 14237.80098076 .00006071 00000-0 41504-3 0 8956 2 37853 101.7080 300.6748 0214836 215.2067 266.5243 14.89986568153023 AUBIESAT 1 37854U 11061E 14237.45673767 .00006050 00000-0 40075-3 0 8773 2 37854 101.7116 302.2716 0212703 213.0566 270.4716 14.91358089153032 HRBE 1 37855U 11061F 14240.81118336 .00004651 00000-0 30457-3 0 8907 2 37855 101.7114 306.4893 0214370 204.6854 154.4475 14.90688118153492 RS-39 1 38051U 11062C 14241.01887334 .00205184 00000-0 15559-2 0 8584 2 38051 051.6217 213.4664 0007329 096.6694 263.5661 15.71610606145527 E-STAR 1 38079U 12006C 14241.05351802 .00281441 00000-0 28170-2 0 9497 2 38079 069.4461 158.0659 0335314 248.8132 107.7242 15.18428989134499 GOLIAT 1 38085U 12006J 14240.88315394 .00215450 00000-0 22952-2 0 3099 2 38085 069.4533 167.4371 0362494 253.5891 102.5521 15.11688187134220 HORYU-2 1 38340U 12025D 14237.80227314 .00001154 00000-0 18906-3 0 9473 2 38340 098.2675 196.2052 0012088 320.5927 039.4415 14.72696538122045 RS-40 1 38735U 12041C 14238.09427720 .00000024 00000-0 10000-3 0 6596 2 38735 082.4717 243.9463 0018212 101.4950 258.8188 12.42561196 94260 PROITERES 1 38756U 12047B 14241.04813064 .00000648 00000-0 96106-4 0 1526 2 38756 098.2274 330.5368 0013168 146.4011 213.8544 14.75051712105924 BEESAT-3 1 39134U 13015E 14239.12485352 .00004792 00000-0 32377-3 0 6836 2 39134 064.8752 273.9160 0033888 295.9896 063.8239 15.05867217 74341 BEESAT-2 1 39136U 13015G 14238.22281809 .00003126 00000-0 22815-3 0 6666 2 39136 064.8705 277.4815 0032879 295.7122 064.0662 15.05171560 74191 LO-75 1 39382U 13064C 14240.78769556 .00487754 00000-0 70190-2 0 3845 2 39382 040.4873 013.9508 0021282 041.3372 318.9561 15.54849938 43314 ZACUBE-1 1 39417U 13066B 14238.09674583 .00000999 00000-0 14030-3 0 3868 2 39417 097.7699 306.3024 0062616 017.5219 342.8183 14.78273142 41022 TRITON-1 1 39427U 13066M 14237.76330899 .00000744 00000-0 13201-3 0 2384 2 39427 097.7578 300.3844 0118854 029.5082 331.2756 14.65535022 40582 DELFIN3XT 1 39428U 13066N 14237.71566529 .00001314 00000-0 23320-3 0 2401 2 39428 097.7565 299.3605 0128985 032.2233 328.6801 14.63525949 40504 GOMX-1 1 39430U 13066Q 14238.22389061 .00000884 00000-0 17530-3 0 7586 2 39430 097.7506 297.1245 0157129 038.0993 323.1185 14.56969447 40419 MO-76 1 39436U 13066W 14237.57212179 .00009005 00000-0 90238-3 0 3074 2 39436 097.7759 310.1592 0025728 022.9991 337.2357 14.91344205 41219 LO-74 1 39440U 13066AA 14237.61804068 .00000846 00000-0 13146-3 0 2388 2 39440 097.7650 303.6227 0084834 022.2992 338.1869 14.73210046 40800 PUCPSAT-1 1 39442U 13066AC 14238.18718876 .00001563 00000-0 18163-3 0 2374 2 39442 097.7761 309.8385 0035286 017.9281 342.3252 14.86328860 40022 SHINAISAT 1 39572U 14009A 14240.96334022 .00268055 00000-0 16792-2 0 2581 2 39572 065.0070 149.1561 0020660 282.3128 077.6221 15.76109077 28551 TEIKYOSAT 1 39576U 14009E 14240.96323628 .00379119 00000-0 17553-2 0 2710 2 39576 065.0059 146.0863 0020812 285.5366 074.3991 15.82731621 28619 CO-77 1 39577U 14009F 14240.72350787 .01438776 00000-0 89188-3 0 3598 2 39577 064.9890 139.0971 0017064 256.3597 103.6054 16.17194585 28943 SPROUT 1 39770U 14029E 14240.95317833 .00000908 00000-0 11242-3 0 1118 2 39770 097.8729 336.9949 0011842 076.3792 283.9252 14.82716346 14483 POPSAT-HIP1 1 40028U 14033U 14239.70341052 .00001382 00000-0 16101-3 0 2029 2 40028 097.9788 134.4822 0016570 064.3593 295.9847 14.85194623 10207 EO-80 1 40032U 14033Y 14238.23158069 .00001184 00000-0 14527-3 0 1945 2 40032 097.9762 132.9528 0014197 062.9057 297.3627 14.84961446 9981 VELOX-1 1 40057U 14034E 14238.31300355 .00001199 00000-0 18990-3 0 1864 2 40057 098.2485 306.4683 0013376 099.3840 260.8908 14.74070444 8418 DAURIA DX 1 1 40071U 14037C 14238.28724582 .00000524 00000-0 77675-4 0 1576 2 40071 098.3992 292.0867 0010121 101.5716 258.6639 14.79548552 7178 UKUBE-1 1 40074U 14037F 14238.25854098 .00001175 00000-0 16121-3 0 1595 2 40074 098.3989 292.1305 0006596 110.2659 249.9271 14.80453128 7170 CHASQUI-1 1 40117U 98067ET 14240.87547405 .00069956 00000-0 11806-2 0 448 2 40117 051.6452 099.2728 0003947 087.5636 004.3184 15.50988669 1573 /EX